SWR9G KORD-LSZH

Flight info

Callsign SWR9G
Flight time N/A
Altitude 31000
Route EBAKE DCT WISMO DCT POSTS DCT PADDE DCT SVM Q907 SIKBO DCT LORKA DCT BAREE/N0488F330 DCT ALLRY/M084F340 DCT 51N050W 53N040W 54N030W 54N020W DCT DOGAL DCT BEXET/N0490F350 DCT EVRIN DCT JETZI DCT AMFUL DCT CAWZE DCT SIRIC P2 NIGIT L18 MID UL612 RESMI UN491 POGZI DCT GELTA DCT MANAG DCT PEVIT DCT BLM
Aircraft B77W/H-SDE1E2E3FGHIJ2J3J4J5M1RWXY/LB1D1

Departure

Time 2026-05-01 15:11
Airport Chicago O'Hare International Airport (KORD)

Arrival

Time N/A
Airport Zürich Airport (LSZH)
Time Latitude Longitude Altitude Speed Heading
2026-05-01 14:47 41.97340 -87.88652 675 ft 0 kts 358°
2026-05-01 14:55 41.97330 -87.88655 673 ft 4 kts 299°
2026-05-01 14:55 41.97315 -87.88642 674 ft 4 kts 355°
2026-05-01 14:56 41.97290 -87.88636 674 ft 4 kts 330°
2026-05-01 14:56 41.97273 -87.88612 674 ft 4 kts 285°
2026-05-01 14:56 41.97270 -87.88582 671 ft 1 kts 270°
2026-05-01 14:59 41.97270 -87.88604 674 ft 3 kts 270°
2026-05-01 14:59 41.97264 -87.88633 675 ft 5 kts 243°
2026-05-01 14:59 41.97231 -87.88651 675 ft 7 kts 193°
2026-05-01 14:59 41.97199 -87.88702 675 ft 9 kts 261°
2026-05-01 15:00 41.97196 -87.89013 675 ft 20 kts 270°
2026-05-01 15:00 41.97196 -87.89197 675 ft 20 kts 270°
2026-05-01 15:00 41.97196 -87.89375 675 ft 10 kts 270°
2026-05-01 15:01 41.97212 -87.89423 675 ft 6 kts 320°
2026-05-01 15:01 41.97272 -87.89432 675 ft 13 kts
2026-05-01 15:01 41.97401 -87.89431 675 ft 23 kts 359°
2026-05-01 15:01 41.97558 -87.89431 675 ft 22 kts 360°
2026-05-01 15:02 41.97715 -87.89431 675 ft 22 kts 360°
2026-05-01 15:02 41.97768 -87.89431 675 ft 22 kts 360°
2026-05-01 15:02 41.97962 -87.89332 674 ft 15 kts 51°
2026-05-01 15:02 41.98029 -87.89224 675 ft 15 kts 50°
2026-05-01 15:03 41.98097 -87.89116 675 ft 15 kts 50°
2026-05-01 15:03 41.98171 -87.88997 675 ft 19 kts 50°
2026-05-01 15:03 41.98282 -87.88921 673 ft 19 kts
2026-05-01 15:03 41.98428 -87.88919 668 ft 21 kts 360°
2026-05-01 15:04 41.98545 -87.88938 674 ft 14 kts 326°
2026-05-01 15:04 41.98613 -87.89029 674 ft 12 kts 340°
2026-05-01 15:04 41.98675 -87.89065 675 ft 10 kts 300°
2026-05-01 15:04 41.98681 -87.89201 675 ft 22 kts 270°
2026-05-01 15:05 41.98682 -87.89451 675 ft 28 kts 270°
2026-05-01 15:05 41.98682 -87.89710 675 ft 28 kts 270°
2026-05-01 15:05 41.98681 -87.89971 675 ft 29 kts 270°
2026-05-01 15:05 41.98681 -87.90245 675 ft 29 kts 270°
2026-05-01 15:06 41.98681 -87.90518 674 ft 29 kts 270°
2026-05-01 15:06 41.98680 -87.90791 673 ft 29 kts 269°
2026-05-01 15:06 41.98680 -87.91065 674 ft 29 kts 270°
2026-05-01 15:06 41.98680 -87.91334 675 ft 29 kts 270°
2026-05-01 15:07 41.98681 -87.91607 675 ft 29 kts 270°
2026-05-01 15:07 41.98681 -87.91881 675 ft 29 kts 270°
2026-05-01 15:07 41.98681 -87.92149 675 ft 25 kts 270°
2026-05-01 15:07 41.98680 -87.92295 675 ft 12 kts 270°
2026-05-01 15:08 41.98679 -87.92413 675 ft 15 kts 270°
2026-05-01 15:08 41.98680 -87.92599 675 ft 24 kts 270°
2026-05-01 15:08 41.98680 -87.92828 675 ft 25 kts 270°
2026-05-01 15:08 41.98680 -87.93030 675 ft 11 kts 270°
2026-05-01 15:09 41.98685 -87.93114 675 ft 9 kts 292°
2026-05-01 15:09 41.98741 -87.93140 675 ft 9 kts 356°
2026-05-01 15:09 41.98802 -87.93142 675 ft 7 kts 359°
2026-05-01 15:09 41.98827 -87.93109 675 ft 5 kts 78°
2026-05-01 15:10 41.98827 -87.93099 675 ft 0 kts 88°
2026-05-01 15:10 41.98828 -87.93078 676 ft 10 kts 88°
2026-05-01 15:10 41.98830 -87.92755 676 ft 72 kts 90°
2026-05-01 15:11 41.98831 -87.91700 673 ft 153 kts 90°
2026-05-01 15:11 41.98839 -87.87959 1534 ft 214 kts 88°
2026-05-01 15:11 41.98837 -87.85953 2551 ft 215 kts 87°
2026-05-01 15:12 41.98798 -87.83886 2942 ft 231 kts 88°
2026-05-01 15:12 41.99493 -87.79590 3619 ft 245 kts 54°
2026-05-01 15:12 42.00397 -87.77579 4109 ft 256 kts 56°
2026-05-01 15:13 42.03042 -87.71183 6192 ft 266 kts 58°
2026-05-01 15:14 42.04822 -87.66696 7481 ft 276 kts 58°
2026-05-01 15:14 42.05721 -87.64398 8162 ft 279 kts 58°
2026-05-01 15:14 42.07542 -87.59707 9494 ft 286 kts 59°
2026-05-01 15:15 42.09417 -87.54849 10490 ft 306 kts 59°
2026-05-01 15:15 42.11510 -87.49420 10835 ft 347 kts 59°
2026-05-01 15:16 42.13434 -87.44401 11374 ft 374 kts 59°
2026-05-01 15:16 42.15860 -87.38038 12610 ft 387 kts 60°
2026-05-01 15:17 42.18346 -87.31505 14100 ft 395 kts 60°
2026-05-01 15:18 42.22174 -87.21433 15957 ft 410 kts 59°
2026-05-01 15:18 42.23466 -87.18029 16556 ft 415 kts 59°
2026-05-01 15:19 42.27248 -87.07282 18359 ft 434 kts 69°
2026-05-01 15:19 42.28313 -86.99155 19404 ft 447 kts 85°
2026-05-01 15:19 42.28468 -86.94937 19934 ft 451 kts 85°
2026-05-01 15:20 42.28758 -86.86380 20941 ft 460 kts 85°
2026-05-01 15:20 42.28913 -86.82047 21454 ft 464 kts 85°
2026-05-01 15:20 42.29078 -86.77680 21956 ft 467 kts 85°
2026-05-01 15:21 42.29247 -86.73328 22440 ft 471 kts 85°
2026-05-01 15:21 42.29421 -86.68883 22922 ft 475 kts 85°
2026-05-01 15:21 42.29597 -86.64402 23409 ft 479 kts 85°
2026-05-01 15:21 42.29773 -86.59892 23816 ft 483 kts 85°
2026-05-01 15:22 42.30122 -86.50743 24576 ft 491 kts 85°
2026-05-01 15:22 42.30295 -86.46116 24952 ft 494 kts 85°
2026-05-01 15:22 42.30468 -86.41455 25331 ft 498 kts 85°
2026-05-01 15:23 42.30639 -86.36770 25712 ft 501 kts 85°
2026-05-01 15:23 42.30808 -86.32120 26072 ft 504 kts 86°
2026-05-01 15:23 42.30980 -86.27310 26431 ft 507 kts 86°
2026-05-01 15:23 42.31147 -86.22592 26759 ft 511 kts 86°
2026-05-01 15:24 42.31316 -86.17786 27095 ft 514 kts 86°
2026-05-01 15:24 42.31484 -86.12940 27421 ft 517 kts 86°
2026-05-01 15:24 42.31618 -86.08067 27724 ft 521 kts 88°
2026-05-01 15:24 42.31601 -86.03160 28034 ft 524 kts 90°
2026-05-01 15:25 42.31538 -85.98220 28341 ft 527 kts 90°
2026-05-01 15:25 42.31457 -85.93254 28643 ft 530 kts 90°
2026-05-01 15:25 42.31376 -85.88261 28926 ft 532 kts 90°
2026-05-01 15:25 42.31298 -85.83251 29188 ft 535 kts 90°
2026-05-01 15:26 42.31226 -85.78207 29439 ft 538 kts 90°
2026-05-01 15:26 42.31156 -85.73141 29695 ft 540 kts 90°
2026-05-01 15:26 42.31086 -85.68070 30039 ft 540 kts 90°
2026-05-01 15:26 42.31016 -85.63002 30350 ft 540 kts 90°
2026-05-01 15:27 42.30944 -85.57980 30617 ft 540 kts 90°
2026-05-01 15:27 42.30868 -85.52898 30856 ft 541 kts 90°
2026-05-01 15:27 42.30789 -85.47794 30975 ft 545 kts 91°
2026-05-01 15:28 42.30623 -85.37545 31038 ft 546 kts 91°
2026-05-01 15:28 42.30446 -85.27290 31018 ft 544 kts 91°
2026-05-01 15:29 42.30168 -85.12060 31028 ft 542 kts 91°
2026-05-01 15:30 42.29740 -84.91709 31022 ft 541 kts 91°
2026-05-01 15:31 42.28974 -84.61322 31004 ft 540 kts 92°
2026-05-01 15:32 42.29369 -84.41044 31004 ft 541 kts 77°
2026-05-01 15:34 42.33777 -84.11034 31012 ft 544 kts 78°